sat.trackr.live / text

‹ back to catalog

METEOR-M2 4

NORAD 59051 · 2024-039A

PAYLOAD ACTIVE UNKNOWN

§ Identity

Operator
Country
CIS
Launch date
2024-02-29
Launch site
VOSTO
Launch vehicle
Mass (kg)
RCS (m²)

Purposes: earth_obs

External: N2YO · Heavens-Above · Gunter

§ Orbital elements

Epoch: 2026-09-19T22:24:38.693952Z

Period
101.23 min
Inclination
98.7125°
Eccentricity
0.0005927
Mean motion
14.22437848 rev/d
Perigee alt
812.9 km
Apogee alt
821.4 km
Semi-major
7,195.3 km
B*
2.3709e-5
RAAN
221.0866°
Arg perigee
254.5127°
Mean anomaly
105.5396°
Rev number
13,273

§ Raw data

METEOR-M2 41 59051U 24039A   26262.93378118  .00000009  00000+0  23709-4 0  99992 59051  98.7125 221.0866 0005927 254.5127 105.5396 14.22437848132736

JSON: /api/v1/satellites/59051 · /tle

For live sub-satellite position, see the globe view (requires WebGL).

§ Visibility from observer

Set your observer location to see the next 7 days of passes ≥ 10°. The values pass through the URL so the page stays shareable.

No JS? Fill the form by hand. The geolocation button needs JavaScript.

§ Radio — SatNOGS DB

ModeDescriptionDownlinkUplink
HRPT HRPT 1.705 GHz
HRPT HRPT 1.700 GHz
FSK LRPT IQ recording usage 137.100 MHz
FSK LRPT IQ recording usage 137.900 MHz
LRPT LRPT S-E RHCP D 72 kbps 137.100 MHz
LRPT LRPT S-E RHCP D 72 kbps 137.900 MHz
LRPT LRPT S-E RHCP D 80 kbps 137.913 MHz
LRPT LRPT S-E RHCP D 80 kbps 137.900 MHz
LRPT LRPT S-E RHCP D 80 kbps 137.100 MHz
BPSK SARSAT L-band 1.545 GHz

10 transmitters · refreshed weekly from db.satnogs.org